Weather in Kreminna

Ukraine / Luhansk Region     49°02′59″N   38°13′15″E
temp.,
°C
wind,
m/s
gust,
m/s
humid.,
%
clouds,
%
prec.,
mm/h
press.,
hPa
HPBL,
m
12 april, mon
mon1200:00+10ene5979100 0.0 1022619
03:00+8ne4991100 0.0 1022267
06:00+8ne4995100 0.0 1021265
09:00+13e5868100 0.0 1021448
12:00+19e693898 0.0 1019869
15:00+21ese71033100 0.0 10201564
18:00+19se61143100 0.0 10211287
21:00+15sse266099 0.0 1022248
13 april, tue
tue1300:00+13sse237461 0.0 102275
03:00+12ese228084 0.0 102245
06:00+10ese2289100 0.0 102220
09:00+12e2579100 0.0 1022358
12:00+14ese4758100 0.0 1022833
15:00+15ese5654100 0.0 1022998
18:00+13se3769100 0.0 1022367
21:00+12ese117994 0.0 102217
14 april, wed
wed1400:00+11se228590 0.0 102137
03:00+10sse119155 0.0 102010
06:00+9e119383 0.0 101910
09:00+13se227447 0.0 1019415
12:00+18se3452100 0.0 10181328
15:00+19se3437100 0.0 10171959
18:00+19ese353091 0.0 1016756
21:00+15nnw1139100 0.0 101611
15 april, thu
thu1500:00+14se114382 0.0 101511
03:00+11ssw117155 0.0 101514
06:00+10wsw228320 0.0 101531
09:00+14w226489 0.0 1015438
12:00+18sse124494 0.0 10131175
15:00+19ssw2340100 0.0 10121986
18:00+17nw124972 0.0 1012496
21:00+15ese2562100 0.1 1013236
16 april, fri
fri1600:00+13sw3863100 0.0 1012442
03:00+12ssw2565100 0.3 1013331
06:00+10sw247378 0.1 1013141
09:00+12ssw3465100 0.1 1013678
12:00+14sw555998 0.4 10131341
15:00+14wsw5559100 0.7 10131249
18:00+12sw3563100 0.1 1013702
21:00+11ssw3565100 0.1 1013467